• Join FlightAware (Why Join?)
  • Login
  • US Flag 
12:10PM EDT


 

Airport Tracker/Info


-or-


 

Live Flight TrackerFlight Track Log ✈ N53442 ✈ 06-Jul-2013 ✈ KORD - KPVD

Flight Track Log - Related Links

Times and Time Zones

All times are in EDT time to prevent confusion due to time zone crossing. See the N53442 flight status page for this flight to view local times or setup timezone preferences in your user account.

Time Position Orientation Groundspeed Altitude Reporting Facility
EDT Latitude Longitude Course Direction KTS MPH feet Rate Location/Type
02:52PM 41.9700 -87.8800 220° Southwest  Level FlightAware
02:52PM 41.9690 -87.8810 217° Southwest 30 35 1,080 Level FlightAware
02:53PM 41.9450 -87.9100 222° Southwest 181 208 1,300 1,680 Climbing FlightAware
02:53PM 41.9390 -87.9140 206° Southwest 181 208 1,700 2,160 Climbing FlightAware
02:53PM 41.9300 -87.9160 189° South 189 217 2,000 1,800 Climbing FlightAware
02:54PM 41.9130 -87.9070 158° South 212 244 2,600 2,040 Climbing FlightAware
02:54PM 41.9020 -87.8870 126° Southeast 233 268 3,300 2,700 Climbing FlightAware
02:55PM 41.8900 -87.8540 116° Southeast 246 283 4,500 1,920 Climbing FlightAware
02:55PM 41.8760 -87.8150 116° Southeast 268 308 5,000 540 Climbing FlightAware
02:55PM 41.8730 -87.7910 100° East 273 314 4,900 -180 Descending FlightAware
02:56PM 41.8750 -87.7440 87° East 274 315 4,900  Level FlightAware
02:56PM 41.8760 -87.7130 88° East 272 313 4,900  Level FlightAware
02:56PM 41.8790 -87.6650 85° East 275 316 4,900  Level FlightAware
02:57PM 41.8850 -87.6200 80° East 274 315 4,900 60 Level FlightAware
02:57PM 41.9010 -87.5830 60° Northeast 278 320 5,000 1,140 Climbing FlightAware
02:58PM 41.9170 -87.5430 62° Northeast 281 323 5,900 2,760 Climbing FlightAware
02:58PM 41.9340 -87.5030 60° Northeast 285 328 7,400 3,180 Climbing FlightAware
02:59PM 41.9520 -87.4580 62° Northeast 296 341 8,800 3,180 Climbing FlightAware
02:59PM 41.9750 -87.4010 61° Northeast 296 341 10,800 3,120 Climbing FlightAware
03:00PM 42.0030 -87.3320 61° Northeast 303 349 12,900 2,820 Climbing FlightAware
03:01PM 42.0330 -87.2580 61° Northeast 308 354 15,000 2,580 Climbing FlightAware
03:01PM 42.0660 -87.1790 61° Northeast 322 371 16,900 1,980 Climbing FlightAware
03:02PM 42.0970 -87.1020 61° Northeast 351 404 17,900 1,080 Climbing FlightAware
03:03PM 42.1140 -87.0210 74° East 377 434 18,400 720 Climbing FlightAware
03:03PM 42.1170 -86.9400 87° East 405 466 18,800 1,080 Climbing FlightAware
03:04PM 42.1220 -86.8170 87° East 428 493 19,900 1,620 Climbing FlightAware
03:05PM 42.1260 -86.7110 87° East 434 499 21,200 1,860 Climbing FlightAware
03:05PM 42.1290 -86.6180 87° East 439 505 22,200 1,500 Climbing FlightAware
03:06PM 42.1330 -86.4900 88° East 454 522 23,200 1,200 Climbing FlightAware
03:07PM 42.1370 -86.3710 87° East 469 540 24,000 1,200 Climbing FlightAware
03:07PM 42.1400 -86.2730 88° East 478 550 24,700 1,260 Climbing FlightAware
03:08PM 42.1440 -86.1490 87° East 485 558 25,600 1,260 Climbing FlightAware
03:09PM 42.1440 -86.0410 90° East 489 563 26,400 1,320 Climbing FlightAware
03:09PM 42.1430 -85.9080 91° East 490 564 27,400 1,200 Climbing FlightAware
03:10PM 42.1420 -85.8070 91° East 493 567 28,000 1,200 Climbing FlightAware
03:11PM 42.1410 -85.6520 90° East 490 564 29,100 1,320 Climbing FlightAware
03:12PM 42.1400 -85.5040 90° East 488 562 30,200 1,260 Climbing FlightAware
03:12PM 42.1390 -85.3920 91° East 489 563 30,900 1,020 Climbing FlightAware
03:13PM 42.1370 -85.2770 91° East 491 565 31,600 960 Climbing FlightAware
03:13PM 42.1350 -85.1650 91° East 493 567 32,200 660 Climbing FlightAware
03:15PM 42.1310 -84.9230 91° East 499 574 33,000 300 Climbing FlightAware
03:16PM 42.1300 -84.7940 91° East 499 574 33,000 1,500 Level FlightAware
03:17PM 42.1250 -84.5800 92° East 499 574 35,500 1,920 Climbing FlightAware
03:17PM 42.1260 -84.4410 89° East 507 583 36,000 720 Climbing FlightAware
03:18PM 42.1410 -84.3060 81° East 513 590 36,600 660 Climbing FlightAware
03:19PM 42.1510 -84.1800 84° East 512 589 37,000 300 Climbing FlightAware
03:19PM 42.1600 -84.0580 84° East 512 589 37,000  Level FlightAware
03:21PM 42.1650 -83.9950 84° East 517 595 37,000  Level FlightAware
03:21PM 42.2200 -83.7140 75° East 522 601 37,000  Level FlightAware
03:22PM 42.2660 -83.5420 70° East 519 597 37,000  Level FlightAware
03:23PM 42.3030 -83.4060 70° East 518 596 37,000  Level FlightAware
03:24PM 42.3520 -83.2270 70° East 515 593 37,000  Level FlightAware
03:25PM 42.3820 -83.1130 70° East 513 590 37,000  Level FlightAware
03:25PM 42.3990 -83.0230 76° East 509 586 37,000  Level FlightAware
03:26PM 42.4140 -82.8930 81° East 504 580 37,000  Level FlightAware
03:27PM 42.4230 -82.7200 86° East 501 577 37,000  Level FlightAware
03:27PM 42.4280 -82.5950 87° East 502 578 37,000  Level FlightAware
03:28PM 42.4300 -82.5230 88° East 503 579 37,000  Level FlightAware
03:29PM 42.4360 -82.3780 87° East 505 581 37,000  Level FlightAware
03:29PM 42.4400 -82.2490 88° East 505 581 37,000  Level FlightAware
03:30PM 42.4450 -82.1210 87° East 505 581 37,000  Level FlightAware
03:31PM 42.4510 -81.9800 87° East 506 582 37,000  Level FlightAware
03:31PM 42.4550 -81.8490 88° East 506 582 37,000  Level FlightAware
03:32PM 42.4600 -81.7010 87° East 505 581 37,000  Level FlightAware
03:33PM 42.4650 -81.5730 87° East 505 581 37,000  Level FlightAware
03:34PM 42.4700 -81.4220 87° East 506 582 37,000  Level FlightAware
03:34PM 42.4730 -81.3020 88° East 507 583 37,000  Level FlightAware
03:35PM 42.4770 -81.1610 88° East 507 583 37,000  Level FlightAware
03:36PM 42.4810 -81.0230 88° East 507 583 37,000  Level FlightAware
03:36PM 42.4830 -80.9480 88° East 507 583 37,000  Level FlightAware
03:37PM 42.4870 -80.8080 88° East 508 585 37,000  Level FlightAware
03:37PM 42.4900 -80.7120 88° East 509 586 37,000  Level FlightAware
03:38PM 42.4930 -80.5800 88° East 509 586 37,000  Level FlightAware
03:39PM 42.4960 -80.4450 88° East 510 587 37,000  Level FlightAware
03:39PM 42.4990 -80.3300 88° East 510 587 37,000  Level FlightAware
03:40PM 42.5010 -80.2160 89° East 510 587 37,000  Level FlightAware
03:40PM 42.5030 -80.1000 89° East 510 587 37,000  Level FlightAware
03:41PM 42.5060 -79.9640 88° East 509 586 37,000  Level FlightAware
03:42PM 42.5080 -79.8320 89° East 510 587 37,000  Level FlightAware
03:42PM 42.5100 -79.7180 89° East 510 587 37,000  Level FlightAware
03:43PM 42.5120 -79.5920 89° East 509 586 37,000  Level FlightAware
03:44PM 42.5150 -79.4490 88° East 508 585 37,000  Level FlightAware
03:44PM 42.5160 -79.3380 89° East 508 585 37,000  Level FlightAware
03:45PM 42.5180 -79.2070 89° East 508 585 37,000  Level FlightAware
03:46PM 42.5190 -79.0630 89° East 508 585 37,000  Level FlightAware
03:46PM 42.5170 -78.9600 91° East 504 580 37,000  Level FlightAware
03:47PM 42.5070 -78.8700 99° East 503 579 37,000  Level FlightAware
03:48PM 42.4930 -78.7450 99° East 503 579 37,000  Level FlightAware
03:48PM 42.4790 -78.6130 98° East 502 578 37,000  Level FlightAware
03:49PM 42.4650 -78.4920 99° East 501 577 37,000  Level FlightAware
03:50PM 42.4520 -78.3720 98° East 500 575 37,000  Level FlightAware
03:50PM 42.4370 -78.2430 99° East 499 574 37,000  Level FlightAware
03:51PM 42.4230 -78.1230 99° East 499 574 37,000  Level FlightAware
03:52PM 42.4090 -77.9970 99° East 500 575 37,000  Level FlightAware
03:52PM 42.3970 -77.8960 99° East 500 575 37,000  Level FlightAware
03:53PM 42.3790 -77.7490 99° East 500 575 37,000  Level FlightAware
03:54PM 42.3650 -77.6250 99° East 501 577 37,000  Level FlightAware
03:54PM 42.3480 -77.4890 100° East 502 578 37,000  Level FlightAware
03:55PM 42.3330 -77.3670 99° East 503 579 37,000  Level FlightAware
03:56PM 42.3190 -77.2490 99° East 503 579 37,000  Level FlightAware
03:56PM 42.3020 -77.1120 99° East 503 579 37,000  Level FlightAware
03:57PM 42.2860 -76.9900 100° East 502 578 37,000  Level FlightAware
03:58PM 42.2710 -76.8710 100° East 501 577 37,000  Level FlightAware
03:58PM 42.2540 -76.7330 99° East 501 577 37,000  Level FlightAware
03:59PM 42.2380 -76.6140 100° East 502 578 37,000  Level FlightAware
04:01PM 42.1990 -76.3150 100° East 504 580 37,000  Level FlightAware
04:01PM 42.1810 -76.1740 100° East 505 581 37,000  Level FlightAware
04:02PM 42.1620 -76.0320 100° East 505 581 37,000  Level FlightAware
04:03PM 42.1450 -75.9060 100° East 506 582 37,000  Level FlightAware
04:04PM 42.1260 -75.7660 100° East 505 581 37,000  Level FlightAware
04:04PM 42.1090 -75.6460 101° East 503 579 37,000  Level FlightAware
04:05PM 42.0900 -75.5100 101° East 501 577 37,000  Level FlightAware
04:06PM 42.0760 -75.4110 101° East 500 575 37,000  Level FlightAware
04:06PM 42.0684 -75.2800 94° East 504 580 37,000  Level FlightAware ADS-B
04:06PM 42.0717 -75.2327 85° East 505 581 37,000  Level FlightAware ADS-B
04:07PM 42.0826 -75.1273 82° East 504 580 37,000  Level FlightAware ADS-B
04:08PM 42.0956 -75.0010 82° East 505 581 37,000  Level FlightAware ADS-B
04:08PM 42.1062 -74.8955 82° East 505 581 37,000 -720 Level FlightAware ADS-B
04:09PM 42.1165 -74.7943 82° East 502 578 36,200 -2,220 Descending FlightAware ADS-B
04:09PM 42.1257 -74.7013 82° East 503 579 34,700 -3,180 Descending FlightAware ADS-B
04:10PM 42.1358 -74.5967 83° East 511 588 32,900 -2,220 Descending FlightAware ADS-B
04:11PM 42.1570 -74.3820 82° East 517 595 30,800 -1,440 Descending FlightAware
04:14PM 42.2160 -73.7520 83° East 493 567 26,400 -1,260 Descending FlightAware
04:16PM 42.2350 -73.5300 83° East 484 557 25,200 -1,020 Descending FlightAware
04:16PM 42.2480 -73.3920 83° East 479 551 24,400 -600 Descending FlightAware
04:17PM 42.2590 -73.2690 83° East 479 551 24,300 -120 Descending FlightAware
04:18PM 42.2670 -73.1750 83° East 479 551 24,300 -2,220 Level FlightAware
04:18PM 42.2520 -73.3430 263° West 21,700 -2,940 Descending FlightAware
04:20PM 42.1040 -72.8870 113° Southeast 440 506 18,600 -1,320 Descending FlightAware
04:21PM 42.0540 -72.8040 129° Southeast 438 504 18,500 -120 Descending FlightAware
04:21PM 42.0160 -72.7410 129° Southeast 438 504 18,500  Level FlightAware
04:22PM 41.9740 -72.6730 130° Southeast 438 504 18,500  Level FlightAware
04:23PM 41.9220 -72.5860 129° Southeast 438 504 18,500  Level FlightAware
04:23PM 41.8840 -72.5230 129° Southeast 438 504 18,500 -1,740 Level FlightAware
04:26PM 41.6920 -72.2340 132° Southeast 10,900 -2,040 Descending FlightAware
04:27PM 41.5681 -72.0267 132° Southeast 377 434 10,700 -540 Descending Boston Center
04:28PM 41.5258 -71.9161 117° Southeast 331 381 9,700 -1,200 Descending Boston Center
04:29PM 41.5108 -71.8108 101° East 316 364 8,500 -1,500 Descending Boston Center
04:30PM 41.5625 -71.7214 52° Northeast 283 326 6,900 -1,260 Descending Boston Center
04:31PM 41.6203 -71.6542 41° Northeast 277 319 6,000 -960 Descending Boston Center
04:32PM 41.6825 -71.5978 34° Northeast 271 312 5,000 -720 Descending Boston Center
04:33PM 41.7383 -71.5497 33° Northeast 259 298 4,600 -420 Descending Boston Center